Weather History for KHRL - January, 2013

Change the Weather History Date:

Saturday, January 19, 2013

  Actual Average Record
Temperature  
Mean Temperature 61 °F 60 °F  
Max Temperature 75 °F 71 °F 89 °F (1922)
Min Temperature 46 °F 50 °F 28 °F (1906)
Degree Days  
Heating Degree Days 4 6  
Month to date heating degree days 173 130  
Since 1 July heating degree days 286 378  
Cooling Degree Days 0 1  
Month to date cooling degree days 16 37  
Year to date cooling degree days 16 37  
Growing Degree Days 10 (Base 50)    
Moisture  
Dew Point 48 °F    
Average Humidity 66    
Maximum Humidity 93    
Minimum Humidity 38    
Precipitation  
Precipitation 0.00 in 0.04 in 1.08 in (1968)
Month to date precipitation 2.54 0.52  
Year to date precipitation 2.54 0.52  
Sea Level Pressure  
Sea Level Pressure 30.23 in    
Wind  
Wind Speed 5 mph (ESE)    
Max Wind Speed 16 mph    
Max Gust Speed 20 mph    
Visibility 10 miles    
Events      
T = Trace of Precipitation, MM = Missing Value Source: NWS Daily Summary

Daily Weather History Graph

Daily Weather History Graph

Search for Another Location

Airport or City:

Trip Planner

Search our weather history database for the weather conditions in past years. The results will help you decide how hot, cold, wet, or windy it might be!

Date:

Astronomy

Jan. 19, 2013 Rise Set
Actual Time 7:19 AM CST 6:03 PM CST
Civil Twilight 6:54 AM CST 6:28 PM CST
Nautical Twilight 6:26 AM CST 6:56 PM CST
Astronomical Twilight 5:58 AM CST 7:24 PM CST
Moon 12:24 PM CST (1/19) 1:03 AM CST (1/19)
Length of Visible Light 11h 34m
Length of Day
10h 44m
First Quarter, 57% of the Moon is Illuminated
Jan 19
First Quarter
Jan 26
Full
Feb 3
Last Quarter
Feb 10
New
Feb 17
First Quarter

Hourly Weather History & Observations

Time (CST) Temp. Dew Point Humidity Pressure Visibility Wind Dir Wind Speed Gust Speed Precip Events Conditions
12:52 AM 52.0 °F 46.9 °F 83% 30.30 in 10.0 mi SE 3.5 mph - N/A   Clear
1:52 AM 52.0 °F 46.9 °F 83% 30.27 in 10.0 mi East 4.6 mph - N/A   Clear
2:52 AM 51.1 °F 46.9 °F 86% 30.26 in 10.0 mi Calm Calm - N/A   Clear
3:52 AM 48.9 °F 46.0 °F 90% 30.25 in 10.0 mi East 3.5 mph - N/A   Clear
4:52 AM 48.9 °F 46.0 °F 90% 30.24 in 10.0 mi ENE 3.5 mph - N/A   Clear
5:52 AM 48.0 °F 46.0 °F 93% 30.25 in 10.0 mi Calm Calm - N/A   Clear
6:52 AM 46.9 °F 45.0 °F 93% 30.26 in 10.0 mi ENE 3.5 mph - N/A   Clear
7:52 AM 46.9 °F 45.0 °F 93% 30.27 in 10.0 mi Calm Calm - N/A   Clear
8:52 AM 57.9 °F 52.0 °F 81% 30.28 in 10.0 mi Calm Calm - N/A   Clear
9:52 AM 64.9 °F 52.0 °F 63% 30.30 in 10.0 mi ESE 4.6 mph - N/A   Clear
10:52 AM 69.1 °F 51.1 °F 53% 30.29 in 10.0 mi SSE 5.8 mph - N/A   Clear
11:52 AM 71.1 °F 46.9 °F 42% 30.27 in 10.0 mi SSW 8.1 mph - N/A   Clear
11:54 AM 71.6 °F 46.4 °F 41% 30.26 in 10.0 mi South 5.8 mph - N/A   Scattered Clouds
12:52 PM 72.0 °F 46.0 °F 40% 30.22 in 10.0 mi Variable 6.9 mph - N/A   Scattered Clouds
1:52 PM 73.9 °F 46.0 °F 37% 30.18 in 10.0 mi SE 8.1 mph - N/A   Clear
2:52 PM 73.0 °F 46.9 °F 39% 30.15 in 10.0 mi Calm Calm - N/A   Clear
3:34 PM 71.6 °F 50.0 °F 46% 30.14 in 10.0 mi East 11.5 mph - N/A   Partly Cloudy
3:52 PM 71.1 °F 51.1 °F 49% 30.14 in 10.0 mi East 12.7 mph - N/A   Mostly Cloudy
4:52 PM 70.0 °F 51.1 °F 51% 30.15 in 10.0 mi East 12.7 mph - N/A   Clear
5:52 PM 66.0 °F 51.1 °F 59% 30.16 in 10.0 mi ESE 11.5 mph - N/A   Clear
6:52 PM 61.0 °F 50.0 °F 67% 30.18 in 10.0 mi East 8.1 mph - N/A   Clear
7:52 PM 57.9 °F 50.0 °F 75% 30.20 in 10.0 mi ESE 6.9 mph - N/A   Clear
8:52 PM 55.9 °F 50.0 °F 80% 30.22 in 10.0 mi SE 5.8 mph - N/A   Clear
9:52 PM 54.0 °F 48.9 °F 83% 30.22 in 10.0 mi East 5.8 mph - N/A   Clear
10:52 PM 53.1 °F 48.9 °F 86% 30.22 in 10.0 mi SE 3.5 mph - N/A   Clear
11:52 PM 53.1 °F 50.0 °F 89% 30.22 in 10.0 mi SE 3.5 mph - N/A   Clear